Regional Weather Roundup
Issued by NWS

Home | Current Version | Previous Version | Text Only | Print | Product List | Glossary Off
Versions: 1 2 3 4 5 6 7 8 9 10 11 12 13 14 15 16 17 18 19 20 21 22 23 24 25 26 27 28 29 30 31 32 33 34 35 36 37 38 39 40 41 42 43 44 45 46 47 48 49 50

000
ASUS45 KABQ 210510
RWRNM
NEW MEXICO REGIONAL WEATHER ROUNDUP
NATIONAL WEATHER SERVICE ALBUQUERQUE NM
1100 PM MDT THU JUL 20 2017

NOTE: "FAIR" MEANS FEW OR NO CLOUDS BELOW 12,000 FEET AGL WITH NO
       SIGNIFICANT WEATHER OR OBSTRUCTIONS TO VISION.

      THIS PRODUCT IS RELEASED AS TWO VERSIONS.  ONE VERSION NEAR
      THE TOP OF THE HOUR CONTAINING PRELIMINARY DATA FROM ALBUQUERQUE
      AND OTHER STATIONS.  A FINAL VERSION WITH ADDITIONAL DATA IS
      ISSUED ABOUT 10 MINUTES AFTER THE HOUR.

NMZ501-503-504-510>518-210600-
NORTHWEST PLATEAU/NORTHCENTRAL MOUNTAINS

CITY           SKY/WX    TMP DP  RH WIND       PRES   REMARKS
FARMINGTON     RAIN      72  58  61 E9        30.19R
LOS ALAMOS     FAIR      71  44  37 S7        30.34S
SANTA FE       FAIR      73  51  46 SE6       30.28R
TAOS           FAIR      70  43  37 SE7       30.35R
ANGEL FIRE     FAIR      61  47  60 SE3       30.44S

$$
NMZ402-403-502-505>509-210600-
WESTCENTRAL MOUNTAINS/SOUTHWEST MOUNTAINS

CITY           SKY/WX    TMP DP  RH WIND       PRES   REMARKS
GALLUP         FAIR      66  55  67 SW7       30.31R
GRANTS         FAIR      67  53  59 CALM      30.31S
SILVER CITY    LGT RAIN  64  61  91 NE12      30.28R

$$
NMZ407-409-411-412-210600-
SOUTHERN DESERTS

CITY           SKY/WX    TMP DP  RH WIND       PRES   REMARKS
DEMING         LGT RAIN  68  67  96 N6        30.20S
LAS CRUCES     FAIR      71  64  78 W7        30.23R
HOLLOMAN AFB   MOCLDY    75  62  63 SE7       30.18R
ALAMOGORDO     FAIR      75  59  57 S7        30.19R
T OR C         LGT RAIN  67  61  81 W12       30.22S

$$
NMZ519>523-210600-
CENTRAL VALLEYS/CENTRAL HIGHLANDS

CITY           SKY/WX    TMP DP  RH WIND       PRES   REMARKS
ALBUQUERQUE    FAIR      76  55  48 SE9       30.22R
DOUBLE EAGLE   FAIR      71  53  53 S6        30.25R
MORIARTY ARPT  FAIR      66  60  81 CALM      30.29S
CLINES CORNERS FAIR      64  49  57 SW10      30.35
BELEN          FAIR      75  51  42 SW3       30.21R
SOCORRO        MOCLDY    75  56  51 SW12      30.20R

$$
NMZ524>526-539-540-210600-
SOUTHCENTRAL MOUNTAINS

CITY           SKY/WX    TMP DP  RH WIND       PRES   REMARKS
RUIDOSO        FAIR      64  54  68 S6        30.37S

$$
NMZ527>531-210600-
NORTHEAST HIGHLANDS/NORTHEAST PLAINS

CITY           SKY/WX    TMP DP  RH WIND       PRES   REMARKS
LAS VEGAS      FAIR      66  47  50 S12       30.32R
RATON          FAIR      70  45  40 SW8       30.24R
CLAYTON        FAIR      72  47  40 S10       30.15R

$$
NMZ532>537-210600-
EASTCENTRAL PLAINS

CITY           SKY/WX    TMP DP  RH WIND       PRES   REMARKS
SANTA ROSA     FAIR      80  49  33 S9        30.16R
TUCUMCARI      FAIR      80  51  36 S9        30.09R
CANNON AFB     FAIR      74  53  47 S7        30.16R
CLOVIS AIRPORT FAIR      76  54  46 S10       30.16R

$$
NMZ028-029-538-210600-
SOUTHEAST PLAINS

CITY           SKY/WX    TMP DP  RH WIND       PRES   REMARKS
ROSWELL        FAIR      80  54  40 SW8       30.10R
ARTESIA        FAIR      82  54  36 S10       30.10R
CARLSBAD       FAIR      84  54  35 SE13      30.08R
HOBBS          FAIR      77  52  41 S9        30.15R


$$




USA.gov is the U.S. government's official web portal to all federal, state and local government web resources and services.